Regional Weather Roundup
Issued by NWS

Home | Current Version | Previous Version | Graphics & Text | Print | Product List | Glossary On
Versions: 1 2 3 4 5 6 7 8 9 10 11 12 13 14 15 16 17 18 19 20 21 22 23 24 25 26 27 28 29 30 31 32 33 34 35 36 37 38 39 40 41 42 43 44 45 46 47 48 49 50
303
ASUS43 KMKX 161811
RWRWI

WISCONSIN REGIONAL WEATHER ROUNDUP
NATIONAL WEATHER SERVICE MILWAUKEE/SULLIVAN WI
100 PM CDT WED AUG 16 2017

NOTE: "FAIR" INDICATES FEW OR NO CLOUDS BELOW 12,000 FEET WITH NO
SIGNIFICANT WEATHER AND/OR OBSTRUCTIONS TO VISIBILITY.

WIZ001-002-006>008-014>016-023>028-161900-
NORTHWEST WISCONSIN

CITY           SKY/WX    TMP DP  RH WIND       PRES   REMARKS
SUPERIOR ARPT    N/A     63  60  89 NE14G20   29.96S
6HR MIN TEMP:  62; 6HR MAX TEMP:  66;

ASHLAND        CLOUDY    68  61  78 NE8       29.97F
6HR MIN TEMP:  53; 6HR MAX TEMP:  73;

HAYWARD        CLOUDY    69  59  70 SE6       29.96F
6HR MIN TEMP:  60; 6HR MAX TEMP:  69; 6HR PCP: TRACE;

SIREN          CLOUDY    71  61  70 SE8       29.91F
6HR MIN TEMP:  61; 6HR MAX TEMP:  71;

CUMBERLAND     CLOUDY    70  61  73 E9        29.93F
RICE LAKE      CLOUDY    72  63  74 E8        29.94F
6HR MIN TEMP:  62; 6HR MAX TEMP:  72; 6HR PCP:  0.03;

CHETEK         CLOUDY    75  65  70 SE12      29.92F
6HR MIN TEMP:  61; 6HR MAX TEMP:  75; 6HR PCP:  0.03;

LADYSMITH      CLOUDY    77  61  58 E14G20    29.96F
6HR MIN TEMP:  59; 6HR MAX TEMP:  77;

EAU CLAIRE     CLOUDY    76  63  64 SE14      29.91F
6HR MIN TEMP:  62; 6HR MAX TEMP:  76; 6HR PCP:  0.01;

MENOMONIE      CLOUDY    77  66  69 E13G18    29.91F
6HR MIN TEMP:  62; 6HR MAX TEMP:  77; 6HR PCP:  0.24;

NEW RICHMOND   CLOUDY    72  65  79 E10       29.89F
6HR MIN TEMP:  62; 6HR MAX TEMP:  72; 6HR PCP:  0.01;

OSCEOLA        CLOUDY    73  65  74 SE10G16   29.91F
6HR MIN TEMP:  63; 6HR MAX TEMP:  73; 6HR PCP:  0.02;

$$

WIZ003>005-009-010-017-018-161900-
NORTH CENTRAL WISCONSIN

CITY           SKY/WX    TMP DP  RH WIND       PRES   REMARKS
MANITOWISH WTR PTSUNNY   72  59  64 E7        30.01F
6HR MIN TEMP:  58; 6HR MAX TEMP:  72;

ARBOR VITAE    CLOUDY    74  59  59 SE3       30.01F
6HR MIN TEMP:  59; 6HR MAX TEMP:  74;

WOODRUFF       CLOUDY    74  59  59 SE3       30.01F
6HR MIN TEMP:  59; 6HR MAX TEMP:  74;

RHINELANDER    CLOUDY    73  59  61 VRB7      30.03F
6HR MIN TEMP:  58; 6HR MAX TEMP:  73;

EAGLE RIVER    MOSUNNY   71  54  54 E12G17    30.02F
6HR MIN TEMP:  57; 6HR MAX TEMP:  73;

LAND O LAKES   MOSUNNY   73  54  50 S7        30.04F
6HR MIN TEMP:  53; 6HR MAX TEMP:  73;

PHILLIPS       CLOUDY    71  60  67 S9        29.99F
6HR MIN TEMP:  54; 6HR MAX TEMP:  71;

TOMAHAWK         N/A     72  59  63 SE5       30.01F
6HR MIN TEMP:  56; 6HR MAX TEMP:  72;

MEDFORD        CLOUDY    71  61  69 E10       29.99F
6HR MIN TEMP:  58; 6HR MAX TEMP:  71;

MERRILL        SUNNY     73  61  64 S12G17    30.01F
$$

WIZ029-030-035-036-043>047-161900-
CENTRAL WISCONSIN

CITY           SKY/WX    TMP DP  RH WIND       PRES   REMARKS
WAUSAU         PTSUNNY   73  59  61 SE9       29.99F
6HR MIN TEMP:  59; 6HR MAX TEMP:  73;

MOSINEE        MOSUNNY   72  61  68 SE10      30.01F
MARSHFIELD     PTSUNNY   76  60  57 SE13      29.97F
6HR MIN TEMP:  61; 6HR MAX TEMP:  76; 6HR PCP: TRACE;

STEVENS POINT  MOSUNNY   73  60  63 E10       30.00F
6HR MIN TEMP:  58; 6HR MAX TEMP:  73;

WAUPACA        SUNNY     79  58  48 SE10      30.00F HX  80
6HR MIN TEMP:  62; 6HR MAX TEMP:  79;

WAUTOMA        MOSUNNY   78  61  55 E8        29.98F HX  80
6HR MIN TEMP:  61; 6HR MAX TEMP:  78;

WISC RAPIDS    SUNNY     78  62  57 SE13G18   29.98F HX  80
6HR MIN TEMP:  63; 6HR MAX TEMP:  78;

CAMP DOUGLAS   MOSUNNY   81  64  57 SE13G18   29.93F HX  82
$$

WIZ011>013-019>022-031-037>040-048>050-161900-
NORTHEAST WISCONSIN

CITY           SKY/WX    TMP DP  RH WIND       PRES   REMARKS
ANTIGO         CLOUDY    71  58  62 SE8       30.04S
6HR MIN TEMP:  57; 6HR MAX TEMP:  71;

SHAWANO        PTSUNNY   75  60  58 SE9       30.02F
6HR MIN TEMP:  62; 6HR MAX TEMP:  76;

OCONTO         SUNNY     72  56  58 E7        30.02F
6HR MIN TEMP:  58; 6HR MAX TEMP:  73;

STURGEON BAY   SUNNY     71  60  68 E5        30.04S
6HR MIN TEMP:  62; 6HR MAX TEMP:  72;

GREEN BAY      CLOUDY    75  65  70 NE5       30.02S
6HR MIN TEMP:  64; 6HR MAX TEMP:  76;

MANITOWOC      MOSUNNY   72  63  73 SE10      30.03S
6HR MIN TEMP:  64; 6HR MAX TEMP:  72;

APPLETON       MOSUNNY   75  52  43 SE9       30.00F
CLINTONVILLE   MOSUNNY   73  59  60 SE6       30.01F
OSHKOSH        SUNNY     76  63  64 E8        30.00F
6HR MIN TEMP:  65; 6HR MAX TEMP:  76;

$$

WIZ032>034-041-042-053>061-161900-
SOUTHWEST WISCONSIN

CITY           SKY/WX    TMP DP  RH WIND       PRES   REMARKS
LA CROSSE      CLOUDY    82  66  58 SE10      29.89F HX  84
6HR MIN TEMP:  67; 6HR MAX TEMP:  84; 6HR PCP: TRACE;

SPARTA         MOSUNNY   80  64  58 SE13      29.92F HX  82
6HR MIN TEMP:  63; 6HR MAX TEMP:  80;

VIROQUA        CLOUDY    78  69  73 SE13      29.93F HX  80
6HR MIN TEMP:  62; 6HR MAX TEMP:  78;

BOSCOBEL       SUNNY     84  67  56 E9G17     29.91F HX  86
6HR MIN TEMP:  64; 6HR MAX TEMP:  84;

PRAIRIE DU CHI CLOUDY    82  67  60 E9G16     29.88F HX  84
6HR MIN TEMP:  63; 6HR MAX TEMP:  82;

PLATTEVILLE    SUNNY     81  73  77 E13       29.93F HX  86
6HR MIN TEMP:  62; 6HR MAX TEMP:  81; 6HR PCP:  0.02;

$$

WIZ056-057-062-063-064-067-068-161900-
SOUTH CENTRAL WISCONSIN

CITY           SKY/WX    TMP DP  RH WIND       PRES   REMARKS
REEDSBURG      SUNNY     80  64  59 SE8       29.94F HX  81
6HR MIN TEMP:  62; 6HR MAX TEMP:  81;

BARABOO/DELLS  SUNNY     80  61  51 E10G16    29.95F HX  81
6HR MIN TEMP:  61; 6HR MAX TEMP:  81;

LONE ROCK      SUNNY     81  69  67 E10       29.92F HX  84
6HR MIN TEMP:  63; 6HR MAX TEMP:  81;

MINERAL POINT  SUNNY     82  72  69 SE10G16   29.94F HX  87
MADISON        MOSUNNY   81  67  62 E14       29.95F HX  83
6HR MIN TEMP:  62; 6HR MAX TEMP:  81;

MIDDLETON      SUNNY     82  65  57 E12G17    29.96F HX  83
6HR MIN TEMP:  64; 6HR MAX TEMP:  82;

WATERTOWN      SUNNY     80  67  64 SE9       29.97F HX  83
6HR MIN TEMP:  60; 6HR MAX TEMP:  81;

MONROE         SUNNY     81  68  65 E7        29.95F HX  83
JANESVILLE     MOSUNNY   84  70  61 SE9       29.95F HX  88
$$

WIZ051-052-058>065-066-070>072-161900-
SOUTHEAST WISCONSIN

CITY           SKY/WX    TMP DP  RH WIND       PRES   REMARKS
MILWAUKEE      MOSUNNY   78  66  66 E9        29.99F HX  80
6HR MIN TEMP:  65; 6HR MAX TEMP:  78;

WAUKESHA       MOSUNNY   79  64  61 SE7       30.00F HX  81
MILWAUKEE/TIMM SUNNY     77  61  57 E9        30.01F
RACINE         SUNNY     77  67  71 E10       30.01F
6HR MIN TEMP:  61; 6HR MAX TEMP:  77;

KENOSHA        SUNNY     79  67  66 SE10      29.99F HX  81
6HR MIN TEMP:  63; 6HR MAX TEMP:  79;

FOND DU LAC    MOSUNNY   80  61  52 E8        29.99F HX  81
6HR MIN TEMP:  61; 6HR MAX TEMP:  80;

SHEBOYGAN      SUNNY     74  65  73 NE7       30.02F
6HR MIN TEMP:  61; 6HR MAX TEMP:  75;

WEST BEND      SUNNY     77  63  61 SE7       30.00F
JUNEAU         SUNNY     78  65  65 E8        29.99F HX  80
6HR MIN TEMP:  59; 6HR MAX TEMP:  78;

$$

LSZ147-162-161900-
LAKE SUPERIOR

STATION/POSITION TIME  TEMP    WIND        PRES    WAVE
                       AIR SEA DIR/SP/G            HT/PER
                 (UTC) (F)     (DEG/KT/KT) (MB)    (FT/S)
W MID LAKE BUOY  1650   61 61  110/  4/  6 1016.6S   1/ 3
DEVILS ISLAND    1800   62      60/ 12/ 13 1015.5F
SAXON HARBOR     1730   67      30/  5/  6 1014.9F
$$

LMZ867-665-643>646-161900-
LAKE MICHIGAN

STATION/POSITION TIME  TEMP    WIND        PRES    WAVE
                       AIR SEA DIR/SP/G            HT/PER
                 (UTC) (F)     (DEG/KT/KT) (MB)    (FT/S)
S GREEN BAY BUOY 1800   68 72   50/ 12/ 14 1016.6
N MID LAKE BUOY  1750   66 68   80/  6/  6 1017.5F   1
NORTHPORT PIER   1740   67      90/  7/  9 1016.9S
KEWAUNEE LAKESHO 1748



USA.gov is the U.S. government's official web portal to all federal, state and local government web resources and services.